SCP
0 0 0 0 0 -0 -0 0 -0 0 0 -0 -0 0 0 0 0 0 0 0 0 0 0 0 0 0 0 0 0 0 0 0 0 0 0 0 0 0 0 0 0 0 0 0
0 0 0 0 -0 -0 -0 0 -0 -0 -0 -0 0 0 0 0 0 0 0 0 0 0 0 0 0 0 0 0 0 0 0 0 0 0 0 0 0 0 0 0 0 0 0 0
0 0 -0 0 -0 -0 -0 0 0 0 -0 0 0 0 0 0 0 0 0 0 0 0 0 0 0 0 0 0 0 0 0 0 0 0 0 0 0 0 0 0 0 0 0 0
0 0 0 0 0 -0 0 0 -0 0 0 0 0 0 0 0 0 0 0 0 0 0 0 0 0 0 0 -0 -0 -0 0 0 0 0 0 0 0 0 0 0 0 0 0 0
0 0 0 0 0 -0 -0 -0 0 -0 -0 0 0 0 0 0 0 0 0 0 0 0 -0 -0 -0 -0 0 0 0 0 0 0 0 0 0 0 0 0 0 0 0 0 0 0
0 0 0 0 0 0 0 0 0 0 0 0 -0 -0 0 0 0 0 0 0 0 0 -0 -0 -0 -0 -0 -0 -0 0 0 0 0 0 0 0 0 0 0 0 0 0 -0 -0
0 0 0 0 0 0 0 0 0 0 0 -0 0 0 -0 0 0 0 0 0 0 0 0 0 0 0 0 0 0 0 0 0 0 0 0 0 0 0 0 0 0 0 -0 -0
0 0 0 0 0 0 0 0 0 0 -0 0 0 -0 -0 0 0 0 0 0 0 0 0 0 0 0 0 0 0 0 0 0 0 0 0 0 0 -0 -0 -0 0 -0 -0 -0
0 0 0 0 0 0 0 0 0 0 0 0 0 0 -0 0 0 0 0 0 0 0 0 0 0 0 0 0 0 0 0 0 0 0 0 0 0 0 0 0 0 -0 -0 -0
0 0 0 0 0 0 0 0 0 0 0 0 0 -0 0 0 0 0 0 0 0 0 0 0 0 0 0 0 0 0 0 0 0 0 0 0 0 0 0 0 0 0 0 -0
0 0 0 0 0 0 0 0 0 -0 -0 0 0 0 0 0 0 0 0 0 0 0 0 0 0 0 0 0 0 0 0 0 0 0 0 0 0 0 0 0 0 0 0 0
0 -0 0 0 0 0 0 0 0 0 -0 0 0 0 0 0 0 0 0 0 0 0 0 0 0 0 0 0 0 0 0 0 0 0 0 0 0 -0 0 -0 0 -0 -0 0
0 0 0 -0 0 0 -0 0 0 0 0 -0 0 0 0 0 0 0 0 0 0 0 0 0 0 0 0 0 0 0 0 0 0 0 0 0 0 0 0 0 0 0 0 0
-0 -0 -0 0 0 -0 -0 -0 0 0 0 -0 -0 0 0 0 0 0 0 0 0 0 0 0 0 0 0 0 0 0 0 0 0 0 0 0 0 0 0 0 0 0 0 0
0 0 -0 -0 0 -0 -0 -0 0 0 0 0 0 0 0 0 0 0 0 0 0 0 0 0 0 0 0 0 0 0 0 0 0 0 0 0 0 0 0 0 0 0 0 0
0 0 -0 -0 0 0 0 -0 -0 0 0 0 0 0 0 0 0 0 0 0 0 0 0 0 0 0 0 0 0 0 0 0 0 0 0 0 0 0 0 0 0 0 0 0
0 0 0 0 0 0 0 -0 -0 0 0 0 0 0 0 0 0 0 0 0 0 0 0 0 0 0 0 0 0 0 0 0 0 0 0 0 0 0 0 0 0 0 0 0
-0 -0 -0 0 0 0 -0 -0 -0 -0 0 0 0 0 0 0 0 0 0 0 0 0 0 0 0 0 0 0 0 0 0 0 0 0 0 0 0 0 0 0 0 0 0 0
-0 -0 -0 0 0 -0 -0 -0 -0 -0 -0 0 0 0 0 0 0 0 0 0 0 0 0 0 0 0 0 0 0 0 0 0 0 0 0 0 0 0 0 0 0 0 0 0
-0 -0 -0 -0 0 -0 -0 -0 -0 0 0 0 0 0 0 0 0 0 0 0 0 0 0 0 0 0 0 0 0 0 0 0 0 0 0 0 0 0 0 0 0 0 0 0
-0 -0 -0 -0 0 -0 -0 -0 -0 -0 0 0 0 0 0 0 0 0 0 0 0 0 0 0 0 0 0 0 0 0 0 0 0 0 0 0 0 0 0 0 0 0 0 0
-0 -0 -0 -0 -0 -0 -0 -0 -0 -0 0 0 0 0 0 0 0 0 0 0 0 0 0 0 0 0 0 0 0 0 0 0 0 0 0 0 0 0 0 0 0 0 0 0
-0 -0 -0 -0 -0 -0 -0 -0 0 0 0 0 0 0 0 0 0 0 0 0 0 0 0 0 0 0 0 0 0 0 0 0 0 0 0 0 0 0 0 0 0 0 0 0
-0 -0 -0 -0 -0 -0 -0 -0 0 0 0 0 0 0 0 0 0 0 0 0 0 0 0 0 0 0 0 0 0 0 0 0 0 0 0 0 0 0 0 0 0 0 0 0
-0 -0 -0 -0 -0 -0 -0 0 0 0 0 0 0 0 0 0 0 0 0 0 0 0 0 0 0 0 0 0 0 0 0 0 0 0 0 0 0 0 0 0 0 0 0 0
-0 -0 -0 -0 -0 0 0 0 0 0 0 0 0 0 0 0 0 0 0 0 0 0 0 0 0 0 0 0 0 0 0 0 0 0 0 0 0 0 0 0 0 0 0 0
-0 -0 -0 0 0 0 0 0 0 0 0 0 0 0 0 0 0 0 0 0 0 0 0 0 0 0 0 0 0 0 0 0 0 0 0 0 0 0 0 0 0 0 0 0
Wind_Speed_500mb
14 21 9 11 13 16 19 12 13 10 13 27 28 17 12 15 13 13 10 8 6 3 7 11 12 13 13 14 14 15 13 13 13 12 12 13 14 17 20 24 30 32 35 38
10 3 8 12 18 21 24 6 21 24 46 25 14 16 19 19 16 16 12 8 5 7 7 9 13 15 14 15 17 17 21 23 21 21 23 25 27 31 34 37 40 47 50 51
10 3 10 14 15 21 10 7 16 11 22 4 8 10 18 13 15 15 12 11 11 11 10 11 17 18 18 20 20 24 28 30 30 31 33 35 37 40 45 46 44 46 48 48
8 12 3 10 3 9 12 12 28 15 14 13 13 21 30 23 16 17 18 20 20 18 17 19 21 23 25 29 32 35 35 41 43 41 39 40 40 42 44 47 43 42 42 41
4 4 17 5 6 12 11 12 18 29 27 15 16 23 27 20 19 15 18 22 22 24 25 27 28 31 32 30 30 31 28 32 33 33 35 36 34 32 33 34 34 33 33 33
2 2 7 12 8 10 6 8 7 19 12 8 9 4 8 19 25 27 27 27 29 32 36 36 34 30 24 24 24 23 24 27 29 28 22 24 26 26 25 23 24 25 26 24
6 7 16 14 5 13 10 12 6 7 18 20 10 13 6 20 27 29 28 33 38 39 36 31 28 26 26 22 21 21 21 21 21 20 19 18 19 19 20 20 20 20 18 18
4 2 13 16 8 9 11 15 19 19 19 26 40 21 17 26 31 36 40 43 44 44 39 34 32 30 27 26 23 21 19 17 16 15 14 14 15 14 14 14 14 13 13 12
17 12 8 14 28 37 51 56 54 45 49 36 32 44 33 34 40 42 43 46 46 45 42 40 36 33 30 27 26 24 22 21 19 17 16 14 13 13 13 12 11 11 11 11
2 6 18 39 55 56 51 54 54 34 40 46 48 41 48 42 47 48 51 54 52 52 50 46 42 39 31 33 31 30 29 26 25 24 23 23 22 21 20 18 16 15 14 13
12 28 48 28 24 54 42 29 35 46 47 54 48 47 47 54 55 55 55 57 60 59 54 48 46 43 40 39 39 37 35 34 33 31 29 28 27 27 26 25 25 24 21 23
9 17 22 41 67 55 62 70 72 69 69 44 40 52 49 55 58 60 61 62 65 65 60 53 51 48 47 47 45 43 43 42 39 37 36 35 34 34 32 30 33 31 31 34
33 65 79 85 80 66 51 70 64 61 42 45 55 49 46 52 54 59 62 67 72 69 60 55 57 57 53 53 52 51 50 46 44 45 45 45 44 43 42 40 42 43 42 42
63 51 52 42 61 85 76 71 61 59 59 65 63 51 48 45 49 56 65 67 64 68 66 63 63 64 57 58 58 57 55 51 52 52 52 51 51 51 50 50 50 51 49 50
46 65 54 54 57 51 47 44 46 45 45 43 40 45 44 45 45 50 57 55 60 63 66 70 71 69 63 63 65 63 61 60 59 58 58 58 58 59 60 61 63 63 58 58
72 60 48 55 59 59 56 51 53 53 52 48 43 35 41 43 47 44 42 50 59 66 62 63 69 65 63 66 68 69 69 66 65 65 66 66 67 68 69 70 72 73 74 69
64 82 85 79 70 71 67 62 58 58 55 52 51 44 38 44 53 51 45 48 52 55 58 60 58 56 60 65 69 72 73 73 72 73 74 74 74 76 77 79 81 82 83 80
48 49 49 53 61 66 69 65 64 56 52 47 48 45 44 44 39 35 32 34 45 53 54 55 54 55 56 57 62 68 73 75 75 78 78 80 81 82 84 86 88 90 90 88
63 63 61 58 54 54 56 56 58 56 51 45 41 37 34 34 36 35 35 35 36 43 42 46 48 51 53 52 53 59 65 69 73 75 76 78 81 82 84 86 87 88 88 89
76 73 68 63 54 50 51 50 53 54 46 41 35 32 31 29 24 25 26 21 24 28 28 32 36 36 37 42 50 54 57 60 63 65 65 65 67 69 71 72 74 76 77 79
82 81 73 65 58 48 46 48 51 48 43 35 28 20 19 19 18 15 12 13 13 16 18 23 27 28 29 32 36 37 40 43 46 48 52 54 56 57 59 60 61 63 65 66
81 78 73 63 54 47 43 43 40 36 33 27 20 13 8 4 4 5 4 3 4 6 6 7 11 15 17 20 22 25 26 28 31 34 36 39 42 44 47 48 50 53 56 58
81 72 67 58 49 42 38 36 33 30 25 21 19 18 17 14 10 7 8 17 15 14 10 8 6 6 6 6 6 8 10 13 17 20 23 27 30 33 36 40 43 46 49 51
85 69 61 50 41 34 29 28 26 24 21 16 13 16 16 17 19 22 20 18 18 15 18 20 18 15 12 13 12 10 10 11 13 16 20 23 26 29 33 36 39 42 44 46
80 67 55 44 36 28 21 20 20 14 12 14 16 16 17 19 22 24 21 23 22 22 25 25 22 21 21 22 21 20 20 21 22 23 25 28 30 32 34 36 39 41 43 44
73 59 47 38 29 24 17 12 11 8 9 11 14 19 21 23 23 23 24 26 27 28 29 29 29 28 29 30 30 30 30 31 31 33 33 34 35 36 38 39 39 40 41 42
62 50 39 31 24 19 12 5 2 5 7 10 15 21 22 23 26 28 28 30 31 32 33 35 35 37 38 38 38 38 38 39 38 37 38 38 39 40 41 41 42 42 43 43
Wind_Direction_500mb
263 273 200 231 202 194 201 192 192 258 230 280 294 287 293 309 287 273 267 275 292 15 46 40 35 39 41 45 52 53 64 82 92 102 118 132 143 146 147 151 144 139 137 138
270 159 187 258 222 215 219 234 276 273 286 283 281 283 286 284 262 261 249 240 215 141 107 88 76 65 61 67 68 72 77 81 91 103 114 115 119 123 127 128 129 131 128 126
268 300 300 295 223 180 195 222 182 188 228 309 299 287 277 282 245 245 227 205 175 155 135 105 100 94 89 86 83 82 80 83 86 94 103 109 113 116 114 111 110 109 113 118
279 339 327 246 228 171 186 227 220 278 251 220 241 293 285 268 259 226 193 178 165 159 145 131 121 112 112 109 105 100 99 99 97 95 95 101 103 103 103 102 102 108 110 108
288 238 293 342 239 149 163 285 207 230 257 251 272 308 291 223 223 211 185 168 159 157 151 144 134 128 125 112 113 119 117 112 109 107 110 109 105 103 110 119 124 125 123 125
49 291 232 245 279 199 133 339 230 209 254 219 171 30 261 205 199 191 182 177 164 158 154 151 146 146 143 140 141 136 125 120 118 119 119 120 119 119 120 120 121 119 122 124
221 277 285 257 236 152 69 240 292 279 274 188 197 228 283 195 198 192 184 175 172 169 164 165 168 165 157 157 154 154 149 144 139 135 134 133 130 130 131 134 133 130 130 129
127 281 295 168 124 121 226 295 295 312 328 252 245 258 255 210 206 200 191 186 185 185 187 185 184 183 180 176 173 173 171 167 160 156 155 154 148 147 147 147 143 141 141 141
195 228 293 217 256 288 299 293 291 290 304 303 281 252 246 233 215 211 207 199 196 194 197 202 204 203 201 192 194 197 197 193 191 188 184 183 183 183 187 188 184 182 187 192
351 265 245 289 289 299 297 286 303 307 297 292 286 284 251 241 228 221 216 211 207 207 211 214 215 215 209 209 211 213 213 213 214 212 210 209 209 209 211 213 215 218 223 229
259 286 292 299 327 326 329 319 314 319 312 309 292 281 267 250 239 232 226 221 219 220 224 224 223 223 219 222 222 223 224 224 225 226 229 230 231 231 231 231 235 239 244 249
248 285 258 292 310 310 308 304 307 305 303 303 299 283 279 262 250 244 236 230 229 230 231 231 230 230 228 229 231 231 233 236 238 239 239 241 243 246 248 249 255 257 258 261
294 302 303 298 303 310 314 314 312 307 301 298 312 304 284 269 258 252 246 241 238 239 241 238 235 236 234 235 237 238 241 242 244 246 247 249 251 253 254 254 255 257 259 263
320 330 320 310 307 306 305 305 307 301 296 295 298 292 287 277 265 257 251 248 248 245 245 245 243 242 239 239 242 245 247 249 250 252 255 257 259 261 263 264 263 264 265 267
317 324 317 319 320 326 325 321 313 309 315 310 295 284 282 279 280 271 258 256 252 252 249 246 248 246 243 242 244 247 250 252 254 257 260 263 265 267 268 270 271 272 271 266
332 340 334 337 334 339 341 332 318 311 308 311 319 293 277 274 277 280 262 252 249 247 250 250 250 251 247 248 248 250 252 255 257 259 261 263 266 268 270 272 275 277 279 280
344 345 343 340 338 334 333 333 326 313 306 303 302 303 302 275 266 266 265 253 253 253 253 253 257 258 256 252 252 254 256 258 260 263 264 267 269 270 273 274 276 278 280 282
356 348 341 332 329 327 328 330 325 318 311 304 298 300 293 292 286 279 273 263 255 253 255 257 256 254 253 252 252 253 256 259 260 262 266 268 270 273 275 277 278 280 282 284
3 357 351 347 340 332 328 325 328 325 317 309 297 294 304 295 281 268 265 263 264 264 258 258 261 258 255 256 256 256 256 258 261 263 266 269 271 274 277 279 281 283 285 285
360 357 352 348 346 343 339 337 336 335 328 316 305 286 286 294 301 276 266 272 266 267 257 251 254 255 253 252 252 254 258 261 264 267 271 274 276 278 280 281 283 285 286 287
356 352 349 346 346 346 342 343 342 346 345 338 329 309 294 293 297 295 278 255 264 272 265 255 255 256 253 250 252 256 259 263 267 272 274 275 277 280 282 285 287 289 293 295
351 348 345 342 343 346 347 349 350 354 355 1 2 357 349 358 17 23 42 17 294 308 310 289 275 273 274 272 268 268 269 270 273 278 284 286 288 289 291 293 295 297 299 301
344 343 339 337 338 342 342 346 355 2 4 15 27 41 54 76 92 81 66 59 52 45 41 33 19 346 319 306 300 296 296 297 297 298 300 301 303 304 305 306 307 307 307 307
337 336 333 333 331 332 332 350 357 3 12 16 39 57 62 72 79 77 74 71 65 66 74 71 66 64 69 74 65 49 30 11 356 346 340 335 330 327 325 324 323 321 319 317
331 327 325 322 321 325 333 344 353 5 25 42 62 71 75 79 78 80 81 79 79 80 81 81 77 74 70 66 60 52 42 32 22 12 5 360 356 352 348 345 342 340 338 336
323 318 312 310 314 311 317 333 340 20 47 73 83 83 83 83 87 90 88 87 85 81 79 76 71 67 63 59 54 50 45 40 33 28 24 20 16 13 10 7 3 359 355 351
314 307 297 292 297 298 288 299 16 90 88 94 99 94 91 92 91 89 86 82 79 77 75 72 68 64 61 59 56 54 51 48 45 40 35 30 25 20 15 9 3 359 354 350
Wind_Speed_850mb
14 21 9 11 13 16 19 12 13 10 13 27 28 17 12 15 13 13 10 8 6 3 7 11 12 13 13 14 14 15 13 13 13 12 12 13 14 17 20 24 30 32 35 38
10 3 8 12 18 21 24 6 21 24 46 25 14 16 19 19 16 16 12 8 5 7 7 9 13 15 14 15 17 17 21 23 21 21 23 25 27 31 34 37 40 47 50 51
10 3 10 14 15 21 10 7 16 11 22 4 8 10 18 13 15 15 12 11 11 11 10 11 17 18 18 20 20 24 28 30 30 31 33 35 37 40 45 46 44 46 48 48
8 12 3 10 3 9 12 12 28 15 14 13 13 21 30 23 16 17 18 20 20 18 17 19 21 23 25 29 32 35 35 41 43 41 39 40 40 42 44 47 43 42 42 41
4 4 17 5 6 12 11 12 18 29 27 15 16 23 27 20 19 15 18 22 22 24 25 27 28 31 32 30 30 31 28 32 33 33 35 36 34 32 33 34 34 33 33 33
2 2 7 12 8 10 6 8 7 19 12 8 9 4 8 19 25 27 27 27 29 32 36 36 34 30 24 24 24 23 24 27 29 28 22 24 26 26 25 23 24 25 26 24
6 7 16 14 5 13 10 12 6 7 18 20 10 13 6 20 27 29 28 33 38 39 36 31 28 26 26 22 21 21 21 21 21 20 19 18 19 19 20 20 20 20 18 18
4 2 13 16 8 9 11 15 19 19 19 26 40 21 17 26 31 36 40 43 44 44 39 34 32 30 27 26 23 21 19 17 16 15 14 14 15 14 14 14 14 13 13 12
17 12 8 14 28 37 51 56 54 45 49 36 32 44 33 34 40 42 43 46 46 45 42 40 36 33 30 27 26 24 22 21 19 17 16 14 13 13 13 12 11 11 11 11
2 6 18 39 55 56 51 54 54 34 40 46 48 41 48 42 47 48 51 54 52 52 50 46 42 39 31 33 31 30 29 26 25 24 23 23 22 21 20 18 16 15 14 13
12 28 48 28 24 54 42 29 35 46 47 54 48 47 47 54 55 55 55 57 60 59 54 48 46 43 40 39 39 37 35 34 33 31 29 28 27 27 26 25 25 24 21 23
9 17 22 41 67 55 62 70 72 69 69 44 40 52 49 55 58 60 61 62 65 65 60 53 51 48 47 47 45 43 43 42 39 37 36 35 34 34 32 30 33 31 31 34
33 65 79 85 80 66 51 70 64 61 42 45 55 49 46 52 54 59 62 67 72 69 60 55 57 57 53 53 52 51 50 46 44 45 45 45 44 43 42 40 42 43 42 42
63 51 52 42 61 85 76 71 61 59 59 65 63 51 48 45 49 56 65 67 64 68 66 63 63 64 57 58 58 57 55 51 52 52 52 51 51 51 50 50 50 51 49 50
46 65 54 54 57 51 47 44 46 45 45 43 40 45 44 45 45 50 57 55 60 63 66 70 71 69 63 63 65 63 61 60 59 58 58 58 58 59 60 61 63 63 58 58
72 60 48 55 59 59 56 51 53 53 52 48 43 35 41 43 47 44 42 50 59 66 62 63 69 65 63 66 68 69 69 66 65 65 66 66 67 68 69 70 72 73 74 69
64 82 85 79 70 71 67 62 58 58 55 52 51 44 38 44 53 51 45 48 52 55 58 60 58 56 60 65 69 72 73 73 72 73 74 74 74 76 77 79 81 82 83 80
48 49 49 53 61 66 69 65 64 56 52 47 48 45 44 44 39 35 32 34 45 53 54 55 54 55 56 57 62 68 73 75 75 78 78 80 81 82 84 86 88 90 90 88
63 63 61 58 54 54 56 56 58 56 51 45 41 37 34 34 36 35 35 35 36 43 42 46 48 51 53 52 53 59 65 69 73 75 76 78 81 82 84 86 87 88 88 89
76 73 68 63 54 50 51 50 53 54 46 41 35 32 31 29 24 25 26 21 24 28 28 32 36 36 37 42 50 54 57 60 63 65 65 65 67 69 71 72 74 76 77 79
82 81 73 65 58 48 46 48 51 48 43 35 28 20 19 19 18 15 12 13 13 16 18 23 27 28 29 32 36 37 40 43 46 48 52 54 56 57 59 60 61 63 65 66
81 78 73 63 54 47 43 43 40 36 33 27 20 13 8 4 4 5 4 3 4 6 6 7 11 15 17 20 22 25 26 28 31 34 36 39 42 44 47 48 50 53 56 58
81 72 67 58 49 42 38 36 33 30 25 21 19 18 17 14 10 7 8 17 15 14 10 8 6 6 6 6 6 8 10 13 17 20 23 27 30 33 36 40 43 46 49 51
85 69 61 50 41 34 29 28 26 24 21 16 13 16 16 17 19 22 20 18 18 15 18 20 18 15 12 13 12 10 10 11 13 16 20 23 26 29 33 36 39 42 44 46
80 67 55 44 36 28 21 20 20 14 12 14 16 16 17 19 22 24 21 23 22 22 25 25 22 21 21 22 21 20 20 21 22 23 25 28 30 32 34 36 39 41 43 44
73 59 47 38 29 24 17 12 11 8 9 11 14 19 21 23 23 23 24 26 27 28 29 29 29 28 29 30 30 30 30 31 31 33 33 34 35 36 38 39 39 40 41 42
62 50 39 31 24 19 12 5 2 5 7 10 15 21 22 23 26 28 28 30 31 32 33 35 35 37 38 38 38 38 38 39 38 37 38 38 39 40 41 41 42 42 43 43
Wind_Direction_850mb
263 273 200 231 202 194 201 192 192 258 230 280 294 287 293 309 287 273 267 275 292 15 46 40 35 39 41 45 52 53 64 82 92 102 118 132 143 146 147 151 144 139 137 138
270 159 187 258 222 215 219 234 276 273 286 283 281 283 286 284 262 261 249 240 215 141 107 88 76 65 61 67 68 72 77 81 91 103 114 115 119 123 127 128 129 131 128 126
268 300 300 295 223 180 195 222 182 188 228 309 299 287 277 282 245 245 227 205 175 155 135 105 100 94 89 86 83 82 80 83 86 94 103 109 113 116 114 111 110 109 113 118
279 339 327 246 228 171 186 227 220 278 251 220 241 293 285 268 259 226 193 178 165 159 145 131 121 112 112 109 105 100 99 99 97 95 95 101 103 103 103 102 102 108 110 108
288 238 293 342 239 149 163 285 207 230 257 251 272 308 291 223 223 211 185 168 159 157 151 144 134 128 125 112 113 119 117 112 109 107 110 109 105 103 110 119 124 125 123 125
49 291 232 245 279 199 133 339 230 209 254 219 171 30 261 205 199 191 182 177 164 158 154 151 146 146 143 140 141 136 125 120 118 119 119 120 119 119 120 120 121 119 122 124
221 277 285 257 236 152 69 240 292 279 274 188 197 228 283 195 198 192 184 175 172 169 164 165 168 165 157 157 154 154 149 144 139 135 134 133 130 130 131 134 133 130 130 129
127 281 295 168 124 121 226 295 295 312 328 252 245 258 255 210 206 200 191 186 185 185 187 185 184 183 180 176 173 173 171 167 160 156 155 154 148 147 147 147 143 141 141 141
195 228 293 217 256 288 299 293 291 290 304 303 281 252 246 233 215 211 207 199 196 194 197 202 204 203 201 192 194 197 197 193 191 188 184 183 183 183 187 188 184 182 187 192
351 265 245 289 289 299 297 286 303 307 297 292 286 284 251 241 228 221 216 211 207 207 211 214 215 215 209 209 211 213 213 213 214 212 210 209 209 209 211 213 215 218 223 229
259 286 292 299 327 326 329 319 314 319 312 309 292 281 267 250 239 232 226 221 219 220 224 224 223 223 219 222 222 223 224 224 225 226 229 230 231 231 231 231 235 239 244 249
248 285 258 292 310 310 308 304 307 305 303 303 299 283 279 262 250 244 236 230 229 230 231 231 230 230 228 229 231 231 233 236 238 239 239 241 243 246 248 249 255 257 258 261
294 302 303 298 303 310 314 314 312 307 301 298 312 304 284 269 258 252 246 241 238 239 241 238 235 236 234 235 237 238 241 242 244 246 247 249 251 253 254 254 255 257 259 263
320 330 320 310 307 306 305 305 307 301 296 295 298 292 287 277 265 257 251 248 248 245 245 245 243 242 239 239 242 245 247 249 250 252 255 257 259 261 263 264 263 264 265 267
317 324 317 319 320 326 325 321 313 309 315 310 295 284 282 279 280 271 258 256 252 252 249 246 248 246 243 242 244 247 250 252 254 257 260 263 265 267 268 270 271 272 271 266
332 340 334 337 334 339 341 332 318 311 308 311 319 293 277 274 277 280 262 252 249 247 250 250 250 251 247 248 248 250 252 255 257 259 261 263 266 268 270 272 275 277 279 280
344 345 343 340 338 334 333 333 326 313 306 303 302 303 302 275 266 266 265 253 253 253 253 253 257 258 256 252 252 254 256 258 260 263 264 267 269 270 273 274 276 278 280 282
356 348 341 332 329 327 328 330 325 318 311 304 298 300 293 292 286 279 273 263 255 253 255 257 256 254 253 252 252 253 256 259 260 262 266 268 270 273 275 277 278 280 282 284
3 357 351 347 340 332 328 325 328 325 317 309 297 294 304 295 281 268 265 263 264 264 258 258 261 258 255 256 256 256 256 258 261 263 266 269 271 274 277 279 281 283 285 285
360 357 352 348 346 343 339 337 336 335 328 316 305 286 286 294 301 276 266 272 266 267 257 251 254 255 253 252 252 254 258 261 264 267 271 274 276 278 280 281 283 285 286 287
356 352 349 346 346 346 342 343 342 346 345 338 329 309 294 293 297 295 278 255 264 272 265 255 255 256 253 250 252 256 259 263 267 272 274 275 277 280 282 285 287 289 293 295
351 348 345 342 343 346 347 349 350 354 355 1 2 357 349 358 17 23 42 17 294 308 310 289 275 273 274 272 268 268 269 270 273 278 284 286 288 289 291 293 295 297 299 301
344 343 339 337 338 342 342 346 355 2 4 15 27 41 54 76 92 81 66 59 52 45 41 33 19 346 319 306 300 296 296 297 297 298 300 301 303 304 305 306 307 307 307 307
337 336 333 333 331 332 332 350 357 3 12 16 39 57 62 72 79 77 74 71 65 66 74 71 66 64 69 74 65 49 30 11 356 346 340 335 330 327 325 324 323 321 319 317
331 327 325 322 321 325 333 344 353 5 25 42 62 71 75 79 78 80 81 79 79 80 81 81 77 74 70 66 60 52 42 32 22 12 5 360 356 352 348 345 342 340 338 336
323 318 312 310 314 311 317 333 340 20 47 73 83 83 83 83 87 90 88 87 85 81 79 76 71 67 63 59 54 50 45 40 33 28 24 20 16 13 10 7 3 359 355 351
314 307 297 292 297 298 288 299 16 90 88 94 99 94 91 92 91 89 86 82 79 77 75 72 68 64 61 59 56 54 51 48 45 40 35 30 25 20 15 9 3 359 354 350